Terug naar catalogus

OPS 4682 DEB

ActiefPO
NORAD 38442·DEBRIS·🇺🇸 United States

Gelanceerd Apr 3, 1965 vanaf Vandenberg Space Force Base

Loading…

Volgende Passages (komende 24 uur)

TLE

VerouderendSource: Space-Track

Epoch: Sep 9, 2026, 14:40 UTC

1 38442U 65027EX  26252.61158745 -.00000623  00000-0 -22801-2 0  9993
2 38442  90.2485   7.6791 0029665  20.3710 339.8584 12.93937841598494

Volg OPS 4682 DEB in realtime met AllMySat

Download on the App Store